Weather History for K4O4 - October, 2012

Change the Weather History Date:

Tuesday, October 23, 2012

  Actual Average (KDEQ) Record (KDEQ)
Temperature  
Mean Temperature 74 °F 61 °F  
Max Temperature 82 °F 74 °F 93 °F (1939)
Min Temperature 66 °F 48 °F 28 °F (1937)
Degree Days  
Heating Degree Days 0 5  
Month to date heating degree days 73  
Since 1 July heating degree days 82  
Cooling Degree Days 9 2  
Month to date cooling degree days 60  
Year to date cooling degree days 1925  
Growing Degree Days 24 (Base 50)    
Moisture  
Dew Point 61 °F    
Average Humidity 66    
Maximum Humidity 88    
Minimum Humidity 45    
Precipitation  
Precipitation 0.00 in 0.16 in 1.02 in (1970)
Month to date precipitation 3.45  
Year to date precipitation 38.65  
Snow  
Snow 0.00 in - - ()
Month to date snowfall  
Since 1 July snowfall  
Since 1 September snowfall  
Snow Depth -    
Sea Level Pressure  
Sea Level Pressure 29.97 in    
Wind  
Wind Speed 8 mph (SSE)    
Max Wind Speed 16 mph    
Max Gust Speed 22 mph    
Visibility 10 miles    
Events      
T = Trace of Precipitation, MM = Missing Value Source: NWS Daily Summary

Daily Weather History Graph

Daily Weather History Graph

Search for Another Location

Airport or City:

Trip Planner

Search our weather history database for the weather conditions in past years. The results will help you decide how hot, cold, wet, or windy it might be!

Date:

Astronomy

Oct. 23, 2012 Rise Set
Actual Time 7:31 AM CDT 6:35 PM CDT
Civil Twilight 7:05 AM CDT 7:00 PM CDT
Nautical Twilight 6:36 AM CDT 7:30 PM CDT
Astronomical Twilight 6:07 AM CDT 7:59 PM CDT
Moon 3:05 PM CDT (10/23) 1:40 AM CDT (10/23)
Length of Visible Light 11h 54m
Length of Day
11h 04m
Waxing Gibbous, 67% of the Moon is Illuminated
Oct 23
Waxing Gibbous
Oct 29
Full
Nov 6
Last Quarter
Nov 13
New
Nov 20
First Quarter

Hourly Weather History & Observations

Time (CDT) Temp. Heat Index Dew Point Humidity Pressure Visibility Wind Dir Wind Speed Gust Speed Precip Events Conditions
12:35 AM 71.6 °F - 62.6 °F 73% 29.97 in 10.0 mi SE 5.8 mph - N/A   Scattered Clouds
1:15 AM 71.6 °F - 62.6 °F 73% 29.97 in 10.0 mi SE 5.8 mph - N/A   Scattered Clouds
1:35 AM 71.6 °F - 60.8 °F 69% 29.97 in 10.0 mi SE 6.9 mph - N/A   Scattered Clouds
1:55 AM 69.8 °F - 60.8 °F 73% 29.97 in 10.0 mi SE 5.8 mph - N/A   Clear
2:35 AM 69.8 °F - 60.8 °F 73% 29.96 in 10.0 mi SSE 5.8 mph - N/A   Scattered Clouds
2:55 AM 69.8 °F - 60.8 °F 73% 29.97 in 10.0 mi SSE 5.8 mph - N/A   Scattered Clouds
3:15 AM 69.8 °F - 60.8 °F 73% 29.97 in 10.0 mi SSE 6.9 mph - N/A   Mostly Cloudy
3:35 AM 68.0 °F - 60.8 °F 78% 29.97 in 10.0 mi SSE 6.9 mph - N/A   Scattered Clouds
3:55 AM 68.0 °F - 60.8 °F 78% 29.96 in 10.0 mi SSE 6.9 mph - N/A   Clear
4:15 AM 68.0 °F - 60.8 °F 78% 29.96 in 10.0 mi SSE 6.9 mph - N/A   Clear
4:35 AM 68.0 °F - 60.8 °F 78% 29.97 in 10.0 mi SSE 6.9 mph - N/A   Scattered Clouds
4:55 AM 68.0 °F - 62.6 °F 83% 29.97 in 10.0 mi SSE 5.8 mph - N/A   Scattered Clouds
5:15 AM 68.0 °F - 60.8 °F 78% 29.97 in 10.0 mi SSE 8.1 mph - N/A   Scattered Clouds
5:55 AM 66.2 °F - 62.6 °F 88% 29.98 in 10.0 mi South 6.9 mph - N/A   Scattered Clouds
6:15 AM 68.0 °F - 62.6 °F 83% 29.99 in 10.0 mi South 10.4 mph - N/A   Overcast
6:35 AM 68.0 °F - 62.6 °F 83% 29.99 in 10.0 mi SSW 8.1 mph - N/A   Overcast
6:55 AM 68.0 °F - 62.6 °F 83% 29.99 in 10.0 mi South 6.9 mph - N/A   Overcast
7:15 AM 66.2 °F - 62.6 °F 88% 29.99 in 10.0 mi South 6.9 mph - N/A   Scattered Clouds
7:55 AM 66.2 °F - 62.6 °F 88% 30.00 in 10.0 mi South 4.6 mph - N/A   Mostly Cloudy
9:35 AM 69.8 °F - 64.4 °F 83% 30.02 in 10.0 mi South 9.2 mph - N/A   Mostly Cloudy
10:15 AM 73.4 °F - 62.6 °F 69% 30.02 in 10.0 mi South 12.7 mph 17.3 mph N/A   Scattered Clouds
10:35 AM 75.2 °F - 62.6 °F 65% 30.02 in 10.0 mi SSW 13.8 mph - N/A   Mostly Cloudy
10:55 AM 75.2 °F - 62.6 °F 65% 30.02 in 10.0 mi SSW 11.5 mph 18.4 mph N/A   Mostly Cloudy
11:15 AM 77.0 °F - 62.6 °F 61% 30.01 in 10.0 mi SSW 16.1 mph 20.7 mph N/A   Mostly Cloudy
11:35 AM 77.0 °F - 62.6 °F 61% 30.01 in 10.0 mi South 15.0 mph 18.4 mph N/A   Mostly Cloudy
11:55 AM 77.0 °F - 62.6 °F 61% 30.01 in 10.0 mi South 11.5 mph 17.3 mph N/A   Mostly Cloudy
12:15 PM 78.8 °F - 62.6 °F 57% 30.01 in 10.0 mi SSW 12.7 mph - N/A   Mostly Cloudy
12:35 PM 80.6 °F 81.8 °F 62.6 °F 54% 29.99 in 10.0 mi South 13.8 mph 18.4 mph N/A   Mostly Cloudy
12:55 PM 80.6 °F 81.8 °F 62.6 °F 54% 29.99 in 10.0 mi South 12.7 mph 17.3 mph N/A   Scattered Clouds
1:15 PM 80.6 °F 81.8 °F 62.6 °F 54% 29.98 in 10.0 mi South 13.8 mph 19.6 mph N/A   Scattered Clouds
1:35 PM 80.6 °F 81.5 °F 60.8 °F 51% 29.97 in 10.0 mi South 12.7 mph 21.9 mph N/A   Scattered Clouds
1:55 PM 82.4 °F 82.9 °F 60.8 °F 48% 29.95 in 10.0 mi South 11.5 mph - N/A   Scattered Clouds
2:15 PM 82.4 °F 82.9 °F 60.8 °F 48% 29.94 in 10.0 mi South 11.5 mph 18.4 mph N/A   Scattered Clouds
2:35 PM 82.4 °F 82.5 °F 59.0 °F 45% 29.94 in 10.0 mi South 13.8 mph - N/A   Scattered Clouds
2:55 PM 80.6 °F 81.5 °F 60.8 °F 51% 29.94 in 10.0 mi South 6.9 mph 21.9 mph N/A   Scattered Clouds
3:15 PM 80.6 °F 81.5 °F 60.8 °F 51% 29.94 in 10.0 mi SSW 12.7 mph 16.1 mph N/A   Mostly Cloudy
3:35 PM 80.6 °F 81.5 °F 60.8 °F 51% 29.94 in 10.0 mi South 11.5 mph - N/A   Mostly Cloudy
3:55 PM 80.6 °F 81.5 °F 60.8 °F 51% 29.94 in 10.0 mi South 13.8 mph - N/A   Mostly Cloudy
4:15 PM 80.6 °F 81.5 °F 60.8 °F 51% 29.93 in 10.0 mi South 10.4 mph - N/A   Mostly Cloudy
4:35 PM 80.6 °F 81.5 °F 60.8 °F 51% 29.93 in 10.0 mi SSW 12.7 mph 16.1 mph N/A   Scattered Clouds
4:55 PM 80.6 °F 81.1 °F 59.0 °F 48% 29.93 in 10.0 mi South 9.2 mph 16.1 mph N/A   Scattered Clouds
5:15 PM 78.8 °F - 59.0 °F 51% 29.93 in 10.0 mi South 11.5 mph - N/A   Scattered Clouds
5:35 PM 78.8 °F - 59.0 °F 51% 29.93 in 10.0 mi SSW 10.4 mph - N/A   Scattered Clouds
5:55 PM 78.8 °F - 59.0 °F 51% 29.93 in 10.0 mi South 11.5 mph - N/A   Mostly Cloudy
6:15 PM 78.8 °F - 59.0 °F 51% 29.93 in 10.0 mi South 9.2 mph - N/A   Mostly Cloudy
6:35 PM 77.0 °F - 60.8 °F 57% 29.94 in 10.0 mi SSE 6.9 mph - N/A   Overcast
6:55 PM 77.0 °F - 60.8 °F 57% 29.94 in 10.0 mi SSE 8.1 mph - N/A   Overcast
7:15 PM 77.0 °F - 60.8 °F 57% 29.94 in 10.0 mi SSE 8.1 mph - N/A   Overcast
7:35 PM 75.2 °F - 60.8 °F 61% 29.94 in 10.0 mi SSE 9.2 mph - N/A   Mostly Cloudy
7:55 PM 73.4 °F - 60.8 °F 65% 29.94 in 10.0 mi SSE 8.1 mph - N/A   Clear
8:15 PM 73.4 °F - 60.8 °F 65% 29.94 in 10.0 mi SSE 8.1 mph - N/A   Clear
8:35 PM 73.4 °F - 60.8 °F 65% 29.95 in 10.0 mi SSE 9.2 mph - N/A   Clear
8:55 PM 71.6 °F - 60.8 °F 69% 29.94 in 10.0 mi SSE 8.1 mph - N/A   Clear
9:15 PM 71.6 °F - 60.8 °F 69% 29.95 in 10.0 mi SSE 6.9 mph - N/A   Clear
9:35 PM 71.6 °F - 60.8 °F 69% 29.95 in 10.0 mi SSE 9.2 mph - N/A   Clear
9:55 PM 71.6 °F - 60.8 °F 69% 29.96 in 10.0 mi SSE 8.1 mph - N/A   Clear
10:15 PM 69.8 °F - 60.8 °F 73% 29.96 in 10.0 mi SSE 8.1 mph - N/A   Clear
10:35 PM 69.8 °F - 60.8 °F 73% 29.97 in 10.0 mi SE 6.9 mph - N/A   Clear
10:55 PM 69.8 °F - 60.8 °F 73% 29.97 in 10.0 mi SE 5.8 mph - N/A   Clear
11:15 PM 68.0 °F - 60.8 °F 78% 29.97 in 10.0 mi SE 5.8 mph - N/A   Clear
11:35 PM 68.0 °F - 60.8 °F 78% 29.97 in 10.0 mi SE 6.9 mph - N/A   Clear
11:55 PM 68.0 °F - 60.8 °F 78% 29.97 in 10.0 mi SE 6.9 mph - N/A   Clear